Home > Weather > Angers > Past weeks

Flag for France Weather for the Past 2 Weeks in Angers, Pays de la Loire, France

Now
54 °F

Clear.


Feels Like: 52 °F
Forecast: 46 / 72 °F
Wind: 6 mph from East

Location: Le Mans Airport

Current Time: May 5, 2016 at 12:34:29 AM

Latest Report: May 5, 2016 at 12:00 AM


Visibility: 10 mi

Pressure: 30.18 "Hg

Humidity: 51%

Dew Point: 36 °F

Location of AngersLocation

Historic Weather in Angers — Graph

°F

Angers Temperature Yesterday

Maximum temperature yesterday: 68 °F (at 5:30 PM)
Minimum temperature yesterday: 39 °F (at 5:00 AM)
Average temperature yesterday: 54 °F

High & Low Weather Summary for the Past Weeks

 TemperatureHumidityPressure
High70 °F (Apr 21, 2:30 PM)94% (Apr 22, 5:30 AM)30.42 "Hg (Apr 22, 5:30 AM)
Low30 °F (Apr 27, 4:30 AM)28% (May 4, 4:00 PM)29.80 "Hg (Apr 26, 4:30 AM)
Average51 °F66%30.12 "Hg
* Reported Apr 19 8:00 PM — May 4 8:00 PM, Angers, Weather by CustomWeather, © 2016

Note: Actual official high and low records may vary slightly from our data, if they occured in-between our weather recording intervals... More about our weather records

Advertising

Angers Weather History for the Previous 24 Hours

Scroll right to see more
 ConditionsComfort  
Time TempWeatherWind HumidityBarometerVisibility
8:00 PM
Wed, May 4
66 °FPassing clouds.8 mph30%30.18 "HgN/A
7:30 PM66 °FSunny.9 mph30%30.18 "Hg10 mi
6:30 PM66 °FSunny.10 mph32%30.18 "HgN/A
6:00 PM68 °FPassing clouds.10 mph30%30.21 "HgN/A
5:30 PM68 °FPassing clouds.9 mph30%30.21 "HgN/A
4:30 PM66 °FPassing clouds.8 mph30%30.24 "HgN/A
4:00 PM66 °FPassing clouds.9 mph28%30.24 "HgN/A
3:30 PM66 °FPassing clouds.9 mph30%30.27 "HgN/A
3:00 PM66 °FPassing clouds.9 mph32%30.27 "HgN/A
2:30 PM64 °FPassing clouds.8 mph34%30.27 "HgN/A
2:00 PM64 °FPassing clouds.9 mph34%30.30 "HgN/A
1:00 PM63 °FPassing clouds.8 mph37%30.30 "HgN/A
12:30 PM63 °FPassing clouds.7 mph39%30.33 "HgN/A
12:00 PM61 °FSunny.8 mph42%30.33 "Hg10 mi
11:30 AM61 °FPassing clouds.8 mph42%30.33 "HgN/A
11:00 AM59 °FPassing clouds.7 mph45%30.33 "HgN/A
10:00 AM55 °FPassing clouds.7 mph55%30.33 "HgN/A
9:30 AM52 °FPassing clouds.6 mph58%30.33 "HgN/A
9:00 AM50 °FPassing clouds.5 mph62%30.33 "HgN/A
8:00 AM45 °FSunny.1 mph71%30.33 "Hg10 mi
7:30 AM43 °FClear.3 mph71%30.36 "Hg10 mi
7:00 AM41 °FClear.5 mph76%30.33 "Hg10 mi
6:30 AM39 °FClear.2 mph81%30.36 "Hg10 mi
6:00 AM39 °FClear.No wind81%30.36 "Hg10 mi
5:30 AM41 °FClear.2 mph76%30.36 "Hg10 mi
5:00 AM39 °FClear.2 mph81%30.36 "Hg10 mi
4:30 AM43 °FClear.1 mph71%30.36 "Hg10 mi
4:00 AM43 °FClear.2 mph71%30.36 "Hg10 mi
3:30 AM45 °FClear.2 mph66%30.36 "Hg10 mi
3:00 AM45 °FClear.3 mph66%30.36 "Hg10 mi
2:30 AM46 °FClear.3 mph62%30.36 "Hg10 mi
2:00 AM46 °FPassing clouds.3 mph62%30.36 "HgN/A
1:30 AM46 °FClear.5 mph62%30.36 "Hg10 mi
1:00 AM48 °FPassing clouds.5 mph62%30.36 "HgN/A
12:30 AM50 °FClear.6 mph58%30.36 "Hg10 mi
12:00 AM50 °FPassing clouds.6 mph62%30.36 "HgN/A
Weather by CustomWeather, © 2016

See weather overviewHow to use our weather pages